Find Local Weather

World > North America > United States > South Carolina

Mountain Rest, South Carolina Regional Weather

Lat: 34.87N, Lon: 83.15W
Wx Zone: SCZ001
Feedback
Expires:201809210100;;955734
ASUS42 KCAE 210010
RWRCAE
REGIONAL WEATHER ROUNDUP
NATIONAL WEATHER SERVICE COLUMBIA SC
800 PM EDT THU SEP 20 2018

NOTE: "FAIR" INDICATES FEW OR NO CLOUDS BELOW 12,000 FEET WITH NO
SIGNIFICANT WEATHER AND/OR OBSTRUCTIONS TO VISIBILITY.

NOT ALL STATIONS ARE QUALITY CONTROLLED BY THE NATIONAL 
WEATHER SERVICE. USE DATA WITH CAUTION...ESPECIALLY 
DEWPOINT OBSERVATIONS.


SCZ001>056-GAZ040-063>065-077-210100-
...UPSTATE SOUTH CAROLINA...
  
CITY           SKY/WX    TMP DP  RH WIND       PRES   REMARKS
ANDERSON       FAIR      81  65  58 E6        30.11R                  
6HR MIN TEMP:  81; 6HR MAX TEMP:  91;                                

LIBERTY        FAIR      79  69  70 SE6       30.12R                  
6HR MIN TEMP:  79; 6HR MAX TEMP:  91;                                

SPARTANBURG    FAIR      77  70  78 CALM      30.12R                  
CLEMSON        FAIR      81  66  60 CALM      30.13R                  
6HR MIN TEMP:  81; 6HR MAX TEMP:  90;                                

GREENVILLE     FAIR      83  66  56 SE3       30.14R                  
6HR MIN TEMP:  83; 6HR MAX TEMP:  91;                                

GREENWOOD      FAIR      75  68  78 CALM      30.13R                  
6HR MIN TEMP:  75; 6HR MAX TEMP:  89;                                

GREER          FAIR      76  71  85 SE3       30.14R                  
6HR MIN TEMP:  76; 6HR MAX TEMP:  89;                                

ROCK HILL      FAIR      77  70  79 CALM      30.14R                  
6HR MIN TEMP:  76; 6HR MAX TEMP:  91;                                

CHESTER        FAIR      77  64  65 CALM      30.13S                  
LAURENS        FAIR      77  68  73 SE3       30.12R                  


...CENTRAL SOUTH CAROLINA...
  
CITY           SKY/WX    TMP DP  RH WIND       PRES   REMARKS
COLUMBIA APT   FAIR      84  70  62 E5        30.10R                  
6HR MIN TEMP:  84; 6HR MAX TEMP:  93;                                

COLUMBIA OWENS FAIR      82  68  62 CALM      30.11R                  
6HR MIN TEMP:  82; 6HR MAX TEMP:  92;                                

MCENTIRE ANGB  CLEAR     78  71  80 CALM      30.11R                  
6HR MIN TEMP:  77; 6HR MAX TEMP:  91;                                

ORANGEBURG     FAIR      80  69  69 CALM      30.11R                  
6HR MIN TEMP:  80; 6HR MAX TEMP:  90;                                

SUMTER SHAW    FAIR      82  68  61 CALM      30.11R                  
6HR MIN TEMP:  82; 6HR MAX TEMP:  92;                                

NEWBERRY       FAIR      79  70  73 CALM      30.14S                  
AIKEN          FAIR      81  64  57 E5        30.14S                  
BARNWELL       FAIR      81  70  69 CALM      30.10S                  
MANNING        FAIR      73  70  88 SE3       30.12R                  
CAMDEN         FAIR      81  68  65 CALM      30.12R                  
LANCASTER        N/A    N/A N/A N/A MISG        N/A                   
WINNSBORO      FAIR      81  68  65 CALM      30.12R                  


...EASTERN AND COASTAL SOUTH CAROLINA...
  
CITY           SKY/WX    TMP DP  RH WIND       PRES   REMARKS
MYRTLE BEACH   FAIR      80  70  71 E10       30.14R                  
6HR MIN TEMP:  80; 6HR MAX TEMP:  85;                                

N MYRTLE BCH   FAIR      80  70  71 E8        30.13R                  
6HR MIN TEMP:  80; 6HR MAX TEMP:  85;                                

CONWAY         FAIR      75  72  88 CALM      30.14R                  
MARION         FAIR      79  72  78 SE5       30.13R                  
HARTSVILLE     FAIR      73  70  88 CALM      30.12R                  
FLORENCE       FAIR      82  73  74 SE9       30.12R                  
6HR MIN TEMP:  82; 6HR MAX TEMP:  91;                                

DARLINGTON     FAIR      79  74  84 CALM      30.12R                  
6HR MIN TEMP:  79; 6HR MAX TEMP:  91;                                

CHARLESTON APT FAIR      81  73  76 E10       30.11R                  
6HR MIN TEMP:  81; 6HR MAX TEMP:  92;                                

WALTERBORO     FAIR      79  72  78 CALM      30.12R                  
BEAUFORT       FAIR      83  74  74 E7        30.11                   
6HR MIN TEMP:  83; 6HR MAX TEMP:  92;                                



...EASTERN GEORGIA...
  
CITY           SKY/WX    TMP DP  RH WIND       PRES   REMARKS
AUGUSTA BUSH F FAIR      76  74  93 SE3       30.08R                  
6HR MIN TEMP:  76; 6HR MAX TEMP:  93;                                

AUGUSTA DANIEL FAIR      86  67  52 E6        30.10R                  
6HR MIN TEMP:  86; 6HR MAX TEMP:  93;                                

THOMSON        FAIR      81  65  59 S3        30.14S                  
6HR MIN TEMP:  81; 6HR MAX TEMP:  92;                                

CLAXTON        FAIR      83  70  64 E3        30.09R                  
6HR MIN TEMP:  83; 6HR MAX TEMP:  94;                                

SYLVANIA       FAIR      82  72  71 SE5       30.11R                  
6HR MIN TEMP:  82; 6HR MAX TEMP:  93;                                

STATESBORO     FAIR      81  70  68 CALM      30.09R                  
6HR MIN TEMP:  81; 6HR MAX TEMP:  92;                                

SAVANNAH       FAIR      82  70  66 E10       30.10R                  
6HR MIN TEMP:  82; 6HR MAX TEMP:  91;                                



...SOUTHERN NORTH CAROLINA...
  
CITY           SKY/WX    TMP DP  RH WIND       PRES   REMARKS
CHARLOTTE      FAIR      84  66  54 SE8       30.13R                  
6HR MIN TEMP:  84; 6HR MAX TEMP:  90;                                

MONROE         FAIR      78  67  68 CALM      30.13R                  
6HR MIN TEMP:  78; 6HR MAX TEMP:  91;                                

ROCKINGHAM     MOCLDY    81  70  71 E3        30.12R                  
ASHEVILLE      CLOUDY    77  68  73 CALM      30.21R                  
6HR MIN TEMP:  77; 6HR MAX TEMP:  86;                                


$$
  

SKY/WX - Weather  TMP - Temperature  DP - Dew Point  RH - Relative Humidity
WIND - Wind Direction/Speed PRES - Barometric Pressure